HKE130 VHHH-RCKH

Flight info

Callsign HKE130
Flight time 0h 57m
Altitude 35000
Route DALOL V631 ENVAR M750 DADON G581 PORCH
Aircraft A321/M-SDE3FGHIRWY/LB1

Departure

Time 2026-04-26 00:14
Airport Hong Kong International Airport (VHHH)

Arrival

Time 2026-04-26 01:11
Airport Kaohsiung International Airport (RCKH)
Time Latitude Longitude Altitude Speed Heading
2026-04-25 23:29 22.30814 113.91763 37 ft 0 kts 71°
2026-04-25 23:50 22.30814 113.91762 37 ft 0 kts 71°
2026-04-26 00:03 22.30809 113.91746 37 ft 2 kts 69°
2026-04-26 00:03 22.30803 113.91729 36 ft 2 kts 69°
2026-04-26 00:04 22.30797 113.91713 37 ft 2 kts 66°
2026-04-26 00:04 22.30790 113.91696 37 ft 2 kts 63°
2026-04-26 00:04 22.30782 113.91681 37 ft 2 kts 55°
2026-04-26 00:04 22.30772 113.91667 37 ft 2 kts 24°
2026-04-26 00:05 22.30757 113.91664 37 ft 1 kts 341°
2026-04-26 00:05 22.30754 113.91665 37 ft 0 kts 340°
2026-04-26 00:07 22.30755 113.91665 37 ft 1 kts 340°
2026-04-26 00:07 22.30785 113.91654 36 ft 8 kts 341°
2026-04-26 00:07 22.30855 113.91628 34 ft 12 kts 341°
2026-04-26 00:08 22.30936 113.91598 36 ft 13 kts 341°
2026-04-26 00:08 22.31022 113.91566 35 ft 14 kts 341°
2026-04-26 00:08 22.31113 113.91531 37 ft 14 kts 341°
2026-04-26 00:08 22.31210 113.91494 37 ft 15 kts 340°
2026-04-26 00:09 22.31311 113.91456 37 ft 16 kts 341°
2026-04-26 00:09 22.31398 113.91419 36 ft 12 kts 322°
2026-04-26 00:09 22.31408 113.91335 38 ft 12 kts 253°
2026-04-26 00:09 22.31379 113.91245 38 ft 13 kts 251°
2026-04-26 00:10 22.31349 113.91151 38 ft 14 kts 251°
2026-04-26 00:10 22.31316 113.91048 37 ft 15 kts 250°
2026-04-26 00:10 22.31280 113.90939 37 ft 16 kts 250°
2026-04-26 00:10 22.31242 113.90823 37 ft 17 kts 251°
2026-04-26 00:11 22.31204 113.90704 37 ft 17 kts 251°
2026-04-26 00:11 22.31163 113.90576 37 ft 18 kts 250°
2026-04-26 00:11 22.31120 113.90446 35 ft 19 kts 251°
2026-04-26 00:11 22.31076 113.90310 36 ft 19 kts 251°
2026-04-26 00:12 22.31032 113.90171 37 ft 20 kts 251°
2026-04-26 00:12 22.30990 113.90041 37 ft 14 kts 251°
2026-04-26 00:12 22.30963 113.89957 37 ft 12 kts 252°
2026-04-26 00:12 22.31002 113.89887 34 ft 12 kts 334°
2026-04-26 00:13 22.31084 113.89860 36 ft 12 kts 359°
2026-04-26 00:13 22.31138 113.89926 36 ft 14 kts 71°
2026-04-26 00:13 22.31230 113.90217 35 ft 75 kts 70°
2026-04-26 00:13 22.31474 113.90974 36 ft 135 kts 71°
2026-04-26 00:14 22.31838 113.92096 90 ft 175 kts 71°
2026-04-26 00:14 22.32235 113.93323 737 ft 172 kts 71°
2026-04-26 00:14 22.32624 113.94546 1412 ft 172 kts 71°
2026-04-26 00:14 22.33016 113.95773 1961 ft 175 kts 71°
2026-04-26 00:15 22.33404 113.97109 2148 ft 199 kts 79°
2026-04-26 00:15 22.33660 113.98618 2514 ft 207 kts 79°
2026-04-26 00:15 22.33912 114.00166 3026 ft 210 kts 79°
2026-04-26 00:15 22.34165 114.01724 3536 ft 212 kts 79°
2026-04-26 00:16 22.34423 114.03305 4022 ft 216 kts 79°
2026-04-26 00:16 22.34553 114.04977 4269 ft 233 kts 98°
2026-04-26 00:16 22.33939 114.06608 4831 ft 240 kts 128°
2026-04-26 00:16 22.32639 114.07737 5443 ft 245 kts 158°
2026-04-26 00:17 22.30989 114.08219 6091 ft 247 kts 168°
2026-04-26 00:17 22.29292 114.08609 6762 ft 251 kts 173°
2026-04-26 00:17 22.27544 114.08687 7398 ft 253 kts 181°
2026-04-26 00:17 22.25770 114.08698 8024 ft 256 kts 180°
2026-04-26 00:18 22.23961 114.08706 8439 ft 269 kts 181°
2026-04-26 00:18 22.22015 114.08692 8657 ft 288 kts 181°
2026-04-26 00:18 22.19961 114.08700 9158 ft 295 kts 175°
2026-04-26 00:18 22.17982 114.09312 9701 ft 301 kts 152°
2026-04-26 00:19 22.16328 114.10713 10238 ft 306 kts 135°
2026-04-26 00:19 22.14761 114.12374 10376 ft 327 kts 135°
2026-04-26 00:19 22.13096 114.14156 10509 ft 346 kts 135°
2026-04-26 00:19 22.11349 114.16032 10702 ft 362 kts 135°
2026-04-26 00:20 22.09550 114.17962 11177 ft 367 kts 135°
2026-04-26 00:20 22.07723 114.19914 11684 ft 372 kts 135°
2026-04-26 00:20 22.05873 114.21884 12209 ft 376 kts 135°
2026-04-26 00:20 22.04002 114.23874 12729 ft 380 kts 135°
2026-04-26 00:21 22.02118 114.25880 13279 ft 382 kts 135°
2026-04-26 00:21 22.00218 114.27897 13813 ft 384 kts 135°
2026-04-26 00:21 21.98308 114.29925 14373 ft 387 kts 135°
2026-04-26 00:21 21.96390 114.31963 14905 ft 389 kts 135°
2026-04-26 00:22 21.94452 114.34020 15439 ft 391 kts 135°
2026-04-26 00:22 21.92510 114.36082 15971 ft 393 kts 135°
2026-04-26 00:22 21.90566 114.38167 16469 ft 396 kts 131°
2026-04-26 00:22 21.89007 114.40602 16926 ft 397 kts 114°
2026-04-26 00:23 21.88202 114.43429 17411 ft 396 kts 96°
2026-04-26 00:23 21.88166 114.46388 17892 ft 397 kts 85°
2026-04-26 00:23 21.88306 114.49364 18384 ft 399 kts 85°
2026-04-26 00:23 21.88451 114.52365 18834 ft 403 kts 85°
2026-04-26 00:24 21.88593 114.55391 19256 ft 407 kts 85°
2026-04-26 00:24 21.88732 114.58449 19667 ft 411 kts 85°
2026-04-26 00:24 21.88866 114.61534 20077 ft 415 kts 86°
2026-04-26 00:24 21.89001 114.64652 20484 ft 419 kts 85°
2026-04-26 00:25 21.89140 114.67801 20875 ft 423 kts 85°
2026-04-26 00:25 21.89279 114.70983 21255 ft 427 kts 85°
2026-04-26 00:25 21.89419 114.74186 21628 ft 430 kts 85°
2026-04-26 00:25 21.89562 114.77463 21966 ft 434 kts 85°
2026-04-26 00:26 21.89705 114.80724 22309 ft 438 kts 85°
2026-04-26 00:26 21.89801 114.82897 22524 ft 440 kts 85°
2026-04-26 00:26 21.89945 114.86201 22842 ft 444 kts 85°
2026-04-26 00:26 21.90088 114.89526 23164 ft 447 kts 85°
2026-04-26 00:27 21.90230 114.92883 23487 ft 450 kts 85°
2026-04-26 00:27 21.90371 114.96264 23778 ft 454 kts 85°
2026-04-26 00:27 21.90515 114.99665 24092 ft 457 kts 85°
2026-04-26 00:27 21.90660 115.03096 24391 ft 460 kts 85°
2026-04-26 00:28 21.90806 115.06545 24696 ft 463 kts 85°
2026-04-26 00:28 21.90950 115.10020 24983 ft 466 kts 85°
2026-04-26 00:28 21.91094 115.13513 25282 ft 468 kts 85°
2026-04-26 00:28 21.91239 115.17027 25580 ft 471 kts 85°
2026-04-26 00:29 21.91384 115.20560 25864 ft 473 kts 85°
2026-04-26 00:29 21.91530 115.24107 26135 ft 476 kts 85°
2026-04-26 00:29 21.91676 115.27683 26420 ft 479 kts 85°
2026-04-26 00:29 21.91819 115.31273 26697 ft 482 kts 85°
2026-04-26 00:30 21.91961 115.34894 26964 ft 484 kts 85°
2026-04-26 00:30 21.92100 115.38527 27232 ft 487 kts 85°
2026-04-26 00:30 21.92242 115.42180 27495 ft 490 kts 85°
2026-04-26 00:30 21.92388 115.45854 27756 ft 492 kts 85°
2026-04-26 00:31 21.92536 115.49543 28014 ft 495 kts 85°
2026-04-26 00:31 21.92688 115.53305 28278 ft 497 kts 85°
2026-04-26 00:31 21.92837 115.57031 28522 ft 499 kts 85°
2026-04-26 00:31 21.92984 115.60773 28755 ft 502 kts 85°
2026-04-26 00:32 21.93129 115.64544 28978 ft 504 kts 85°
2026-04-26 00:32 21.93271 115.68321 29226 ft 506 kts 85°
2026-04-26 00:32 21.93553 115.75931 29702 ft 511 kts 85°
2026-04-26 00:33 21.93697 115.79761 29943 ft 513 kts 85°
2026-04-26 00:33 21.93840 115.83611 30195 ft 515 kts 85°
2026-04-26 00:33 21.93980 115.87459 30547 ft 514 kts 85°
2026-04-26 00:33 21.94121 115.91304 30916 ft 513 kts 84°
2026-04-26 00:34 21.94263 115.95132 31257 ft 512 kts 84°
2026-04-26 00:34 21.94404 115.98960 31597 ft 511 kts 84°
2026-04-26 00:34 21.94542 116.02777 31943 ft 510 kts 84°
2026-04-26 00:34 21.94678 116.06590 32269 ft 509 kts 84°
2026-04-26 00:35 21.94812 116.10394 32589 ft 508 kts 84°
2026-04-26 00:35 21.94946 116.14185 32912 ft 507 kts 84°
2026-04-26 00:35 21.95080 116.17978 33209 ft 506 kts 84°
2026-04-26 00:35 21.95213 116.21760 33501 ft 505 kts 84°
2026-04-26 00:36 21.95345 116.25537 33784 ft 505 kts 84°
2026-04-26 00:36 21.95476 116.29312 34059 ft 504 kts 84°
2026-04-26 00:36 21.95608 116.33080 34328 ft 504 kts 84°
2026-04-26 00:36 21.95741 116.36850 34580 ft 504 kts 84°
2026-04-26 00:37 21.95869 116.40621 34794 ft 505 kts 84°
2026-04-26 00:37 21.95996 116.44407 34997 ft 506 kts 84°
2026-04-26 00:37 21.96242 116.51987 35064 ft 507 kts 84°
2026-04-26 00:38 21.96484 116.59622 35071 ft 507 kts 85°
2026-04-26 00:38 21.96728 116.67217 35070 ft 507 kts 85°
2026-04-26 00:39 21.96971 116.74819 35074 ft 508 kts 85°
2026-04-26 00:39 21.97201 116.82433 35076 ft 509 kts 85°
2026-04-26 00:40 21.97435 116.90055 35077 ft 510 kts 85°
2026-04-26 00:40 21.97678 116.97685 35078 ft 510 kts 85°
2026-04-26 00:41 21.97904 117.05335 35077 ft 511 kts 86°
2026-04-26 00:41 21.98123 117.13004 35080 ft 512 kts 86°
2026-04-26 00:42 21.98343 117.20679 35078 ft 513 kts 86°
2026-04-26 00:42 21.98571 117.28362 35079 ft 513 kts 86°
2026-04-26 00:43 21.98788 117.36056 35078 ft 514 kts 86°
2026-04-26 00:43 21.99010 117.43760 35076 ft 514 kts 83°
2026-04-26 00:44 22.00445 117.51221 35082 ft 506 kts 65°
2026-04-26 00:44 22.03645 117.57846 35086 ft 496 kts 52°
2026-04-26 00:45 22.07255 117.64187 35086 ft 496 kts 53°
2026-04-26 00:45 22.10871 117.70586 35085 ft 496 kts 53°
2026-04-26 00:46 22.14456 117.76955 35087 ft 498 kts 55°
2026-04-26 00:46 22.15855 117.80396 35081 ft 506 kts 71°
2026-04-26 00:46 22.16457 117.84152 35079 ft 511 kts 83°
2026-04-26 00:47 22.17042 117.91805 35069 ft 513 kts 83°
2026-04-26 00:47 22.17333 117.99513 35067 ft 515 kts 88°
2026-04-26 00:48 22.17179 118.07260 35064 ft 517 kts 90°
2026-04-26 00:48 22.16979 118.15023 35073 ft 518 kts 89°
2026-04-26 00:49 22.16902 118.22783 35070 ft 517 kts 88°
2026-04-26 00:49 22.16891 118.30541 35080 ft 517 kts 88°
2026-04-26 00:50 22.16860 118.38309 35082 ft 518 kts 89°
2026-04-26 00:50 22.16808 118.46083 35084 ft 518 kts 89°
2026-04-26 00:51 22.16736 118.53851 34929 ft 519 kts 89°
2026-04-26 00:51 22.16699 118.57773 33843 ft 529 kts 89°
2026-04-26 00:51 22.16662 118.61759 33038 ft 532 kts 89°
2026-04-26 00:52 22.16626 118.65735 32518 ft 528 kts 89°
2026-04-26 00:52 22.16591 118.69683 31869 ft 527 kts 89°
2026-04-26 00:52 22.16552 118.73660 30861 ft 530 kts 90°
2026-04-26 00:52 22.16508 118.77581 30093 ft 517 kts 90°
2026-04-26 00:53 22.16467 118.81430 29022 ft 509 kts 89°
2026-04-26 00:53 22.16428 118.85214 28138 ft 501 kts 89°
2026-04-26 00:53 22.16392 118.88958 27611 ft 497 kts 89°
2026-04-26 00:53 22.16356 118.92672 27163 ft 491 kts 89°
2026-04-26 00:54 22.16321 118.96395 26630 ft 488 kts 90°
2026-04-26 00:54 22.16045 119.00022 26106 ft 484 kts 96°
2026-04-26 00:54 22.15614 119.03604 25632 ft 479 kts 96°
2026-04-26 00:54 22.15178 119.07148 25172 ft 474 kts 97°
2026-04-26 00:55 22.14744 119.10651 24728 ft 469 kts 96°
2026-04-26 00:55 22.14314 119.14116 24281 ft 464 kts 96°
2026-04-26 00:55 22.13892 119.17548 23836 ft 460 kts 96°
2026-04-26 00:55 22.13478 119.20954 23391 ft 456 kts 96°
2026-04-26 00:56 22.13068 119.24331 22939 ft 453 kts 96°
2026-04-26 00:56 22.12662 119.27688 22477 ft 449 kts 96°
2026-04-26 00:56 22.12262 119.31022 22018 ft 447 kts 96°
2026-04-26 00:56 22.11862 119.34331 21554 ft 444 kts 97°
2026-04-26 00:57 22.11461 119.37630 21083 ft 442 kts 97°
2026-04-26 00:57 22.11059 119.40905 20604 ft 440 kts 97°
2026-04-26 00:57 22.10657 119.44163 20128 ft 437 kts 97°
2026-04-26 00:57 22.10255 119.47409 19644 ft 435 kts 97°
2026-04-26 00:58 22.09854 119.50631 19164 ft 432 kts 97°
2026-04-26 00:58 22.09458 119.53822 18747 ft 427 kts 97°
2026-04-26 00:58 22.09138 119.57001 18271 ft 423 kts 90°
2026-04-26 00:58 22.09442 119.60107 17566 ft 414 kts 73°
2026-04-26 00:59 22.10511 119.62941 16803 ft 403 kts 55°
2026-04-26 00:59 22.12094 119.65393 16037 ft 396 kts 50°
2026-04-26 00:59 22.13705 119.67783 15281 ft 392 kts 51°
2026-04-26 00:59 22.15292 119.70148 14452 ft 386 kts 51°
2026-04-26 01:00 22.16347 119.71721 13887 ft 382 kts 51°
2026-04-26 01:00 22.17888 119.74026 13029 ft 376 kts 52°
2026-04-26 01:00 22.19919 119.76924 12499 ft 355 kts 43°
2026-04-26 01:00 22.21768 119.78627 12133 ft 347 kts 35°
2026-04-26 01:01 22.23052 119.79704 11845 ft 345 kts 35°
2026-04-26 01:01 22.24944 119.81280 11416 ft 342 kts 35°
2026-04-26 01:01 22.26830 119.82842 10981 ft 340 kts 35°
2026-04-26 01:01 22.28697 119.84390 10567 ft 337 kts 35°
2026-04-26 01:02 22.30547 119.85927 10226 ft 332 kts 35°
2026-04-26 01:02 22.32346 119.87421 10099 ft 320 kts 36°
2026-04-26 01:02 22.34080 119.88868 9953 ft 310 kts 36°
2026-04-26 01:02 22.35774 119.90282 9588 ft 308 kts 36°
2026-04-26 01:03 22.37465 119.91693 9254 ft 305 kts 36°
2026-04-26 01:03 22.39135 119.93086 8904 ft 302 kts 36°
2026-04-26 01:03 22.40794 119.94469 8542 ft 300 kts 36°
2026-04-26 01:03 22.42440 119.95840 8128 ft 296 kts 36°
2026-04-26 01:04 22.44061 119.97195 7497 ft 293 kts 36°
2026-04-26 01:04 22.45657 119.98528 6799 ft 289 kts 36°
2026-04-26 01:04 22.47251 119.99856 6137 ft 287 kts 36°
2026-04-26 01:04 22.48827 120.01168 5831 ft 284 kts 36°
2026-04-26 01:05 22.50385 120.02471 5474 ft 283 kts 36°
2026-04-26 01:05 22.51925 120.03760 4972 ft 277 kts 36°
2026-04-26 01:05 22.53426 120.05017 4396 ft 269 kts 36°
2026-04-26 01:05 22.54886 120.06242 3845 ft 261 kts 36°
2026-04-26 01:06 22.56291 120.07420 3411 ft 250 kts 37°
2026-04-26 01:06 22.57583 120.08679 3052 ft 244 kts 53°
2026-04-26 01:06 22.58289 120.10278 3044 ft 234 kts 75°
2026-04-26 01:06 22.58400 120.11995 3018 ft 222 kts 91°
2026-04-26 01:07 22.58349 120.13586 3028 ft 202 kts 91°
2026-04-26 01:07 22.58305 120.15081 3040 ft 196 kts 91°
2026-04-26 01:07 22.58262 120.16543 2999 ft 194 kts 91°
2026-04-26 01:07 22.58220 120.17989 2821 ft 191 kts 91°
2026-04-26 01:08 22.58179 120.19407 2582 ft 184 kts 91°
2026-04-26 01:08 22.58138 120.20764 2345 ft 176 kts 90°
2026-04-26 01:08 22.58098 120.22077 2119 ft 172 kts 90°
2026-04-26 01:08 22.58058 120.23363 1894 ft 170 kts 90°
2026-04-26 01:09 22.58020 120.24643 1692 ft 170 kts 90°
2026-04-26 01:09 22.57984 120.25872 1466 ft 158 kts 88°
2026-04-26 01:09 22.57949 120.27035 1261 ft 153 kts 89°
2026-04-26 01:09 22.57915 120.28175 1046 ft 150 kts 89°
2026-04-26 01:10 22.57881 120.29299 850 ft 150 kts 89°
2026-04-26 01:10 22.57846 120.30424 650 ft 149 kts 89°
2026-04-26 01:10 22.57812 120.31543 456 ft 149 kts 89°
2026-04-26 01:10 22.57775 120.32669 249 ft 150 kts 90°
2026-04-26 01:11 22.57744 120.33801 57 ft 149 kts 90°
2026-04-26 01:11 22.57715 120.34771 35 ft 96 kts 91°
2026-04-26 01:11 22.57703 120.35190 36 ft 33 kts 92°
2026-04-26 01:11 22.57695 120.35426 37 ft 31 kts 92°
2026-04-26 01:12 22.57689 120.35648 37 ft 28 kts 91°
2026-04-26 01:12 22.57684 120.35819 40 ft 13 kts 91°
2026-04-26 01:12 22.57658 120.35906 40 ft 13 kts 143°
2026-04-26 01:12 22.57570 120.35917 40 ft 11 kts 181°
2026-04-26 01:13 22.57517 120.35872 39 ft 11 kts 254°
2026-04-26 01:13 22.57517 120.35784 39 ft 13 kts 272°
2026-04-26 01:13 22.57522 120.35684 38 ft 14 kts 272°
2026-04-26 01:13 22.57525 120.35574 38 ft 15 kts 271°
2026-04-26 01:14 22.57528 120.35455 37 ft 16 kts 272°
2026-04-26 01:14 22.57532 120.35325 36 ft 18 kts 272°
2026-04-26 01:14 22.57536 120.35184 36 ft 19 kts 271°
2026-04-26 01:14 22.57540 120.35033 36 ft 20 kts 272°
2026-04-26 01:15 22.57546 120.34877 35 ft 21 kts 272°
2026-04-26 01:15 22.57551 120.34712 35 ft 22 kts 271°
2026-04-26 01:15 22.57555 120.34540 34 ft 23 kts 271°
2026-04-26 01:15 22.57561 120.34359 33 ft 25 kts 272°
2026-04-26 01:16 22.57569 120.34193 33 ft 13 kts 270°
2026-04-26 01:16 22.57518 120.34130 32 ft 13 kts 197°
2026-04-26 01:16 22.57428 120.34132 32 ft 13 kts 154°
2026-04-26 01:16 22.57408 120.34225 33 ft 14 kts 89°
2026-04-26 01:17 22.57404 120.34309 33 ft 7 kts 103°
2026-04-26 01:17 22.57365 120.34328 33 ft 7 kts 184°
2026-04-26 01:17 22.57317 120.34327 33 ft 6 kts 179°
2026-04-26 01:17 22.57277 120.34327 33 ft 5 kts 193°
2026-04-26 01:18 22.57260 120.34291 33 ft 6 kts 270°
2026-04-26 01:18 22.57264 120.34239 33 ft 6 kts 272°
2026-04-26 01:18 22.57264 120.34227 33 ft 0 kts 272°